Total_Precipitation_Accumulation
0.72 0.72 0.66 0.66 0.53 0.48 0.50 0.51 0.47 0.46 0.38 0.27 0.23 0.24 0.27 0.22 0.20 0.23 0.33 0.43 0.59 0.62 0.54 0.37 0.24 0.21 0.23 0.23 0.25 0.32 0.40 0.44 0.48 0.48 0.39 0.31 0.23 0.17 0.11 0.09 0.10 0.12 0.12
0.77 0.81 0.75 0.72 0.67 0.59 0.59 0.71 0.61 0.56 0.52 0.42 0.27 0.25 0.26 0.23 0.19 0.20 0.28 0.49 0.64 0.61 0.66 0.64 0.47 0.34 0.28 0.24 0.27 0.30 0.35 0.38 0.39 0.42 0.38 0.29 0.21 0.15 0.09 0.08 0.09 0.11 0.12
0.75 0.77 0.77 0.72 0.69 0.70 0.68 0.72 0.72 0.68 0.53 0.44 0.33 0.24 0.21 0.20 0.20 0.16 0.14 0.20 0.27 0.38 0.50 0.57 0.59 0.48 0.37 0.30 0.30 0.27 0.26 0.29 0.33 0.38 0.41 0.32 0.22 0.17 0.13 0.12 0.11 0.10 0.10
0.80 0.79 0.82 0.82 0.84 0.85 0.80 0.78 0.81 0.76 0.62 0.52 0.45 0.35 0.24 0.21 0.21 0.20 0.15 0.12 0.13 0.15 0.28 0.34 0.41 0.43 0.44 0.42 0.41 0.31 0.23 0.20 0.21 0.28 0.37 0.36 0.27 0.21 0.19 0.18 0.15 0.12 0.09
0.87 0.96 0.96 1.01 0.99 0.98 0.95 0.88 0.82 0.75 0.68 0.59 0.47 0.39 0.29 0.23 0.22 0.20 0.23 0.19 0.17 0.14 0.15 0.15 0.20 0.20 0.25 0.28 0.33 0.34 0.25 0.17 0.15 0.18 0.23 0.27 0.25 0.22 0.23 0.22 0.16 0.13 0.11
1.18 1.29 1.33 1.27 1.26 1.23 1.18 1.10 1.11 0.97 0.78 0.72 0.62 0.45 0.31 0.27 0.26 0.22 0.23 0.22 0.17 0.16 0.15 0.10 0.10 0.09 0.10 0.14 0.18 0.23 0.21 0.19 0.16 0.15 0.17 0.19 0.20 0.17 0.20 0.24 0.21 0.19 0.19
1.55 1.63 1.56 1.61 1.61 1.44 1.42 1.46 1.48 1.39 1.10 0.90 0.87 0.69 0.47 0.31 0.30 0.28 0.26 0.23 0.22 0.22 0.23 0.16 0.09 0.08 0.07 0.07 0.08 0.15 0.21 0.25 0.23 0.18 0.17 0.17 0.16 0.14 0.15 0.19 0.20 0.23 0.25
1.78 1.78 1.85 1.89 1.89 1.86 1.80 1.66 1.69 1.75 1.48 1.18 1.18 1.32 0.96 0.64 0.36 0.29 0.30 0.26 0.25 0.27 0.29 0.27 0.19 0.13 0.08 0.07 0.05 0.07 0.14 0.24 0.27 0.22 0.18 0.17 0.15 0.11 0.10 0.13 0.17 0.19 0.23
2.01 2.02 2.06 2.09 2.05 1.88 1.85 1.93 2.00 2.27 2.01 1.60 1.38 1.50 1.23 0.95 0.70 0.39 0.35 0.37 0.35 0.35 0.37 0.42 0.36 0.29 0.22 0.15 0.11 0.06 0.05 0.09 0.19 0.22 0.20 0.19 0.17 0.13 0.10 0.10 0.13 0.17 0.18
1.92 2.02 2.03 2.01 1.97 1.88 1.92 1.98 1.99 2.27 2.40 2.04 1.70 1.37 1.08 0.97 0.97 0.72 0.47 0.42 0.45 0.37 0.36 0.39 0.39 0.38 0.33 0.25 0.22 0.12 0.07 0.06 0.10 0.18 0.23 0.23 0.20 0.17 0.14 0.12 0.13 0.14 0.15
1.80 1.81 1.82 1.88 1.90 1.93 1.97 2.11 2.17 2.35 2.34 2.27 2.00 1.80 1.61 1.29 0.95 0.90 0.83 0.63 0.55 0.43 0.39 0.42 0.44 0.44 0.41 0.37 0.37 0.29 0.17 0.09 0.09 0.18 0.26 0.29 0.25 0.22 0.21 0.18 0.16 0.16 0.14
1.78 1.70 1.68 1.72 1.82 1.97 2.01 2.06 2.15 2.34 2.43 2.47 2.30 2.02 1.88 1.69 1.40 1.24 0.99 0.84 0.77 0.61 0.53 0.48 0.48 0.47 0.46 0.45 0.46 0.58 0.40 0.19 0.11 0.15 0.23 0.30 0.32 0.30 0.28 0.28 0.26 0.23 0.22
1.49 1.50 1.58 1.65 1.76 1.88 1.94 2.01 2.13 2.13 2.23 2.48 2.46 2.23 1.99 1.76 1.67 1.53 1.35 1.08 0.91 0.68 0.58 0.54 0.50 0.50 0.50 0.55 0.60 0.70 0.54 0.29 0.16 0.12 0.13 0.16 0.22 0.27 0.29 0.28 0.29 0.29 0.29
1.38 1.32 1.35 1.43 1.63 1.83 1.90 1.95 1.93 1.92 1.97 2.14 2.16 2.17 2.12 1.87 1.76 1.56 1.45 1.49 1.27 1.02 0.74 0.54 0.47 0.47 0.49 0.54 0.65 0.73 0.52 0.38 0.24 0.16 0.12 0.12 0.14 0.17 0.22 0.26 0.30 0.31 0.31
1.18 1.11 1.12 1.16 1.25 1.48 1.72 1.85 1.76 1.68 1.66 1.76 1.83 1.93 2.05 2.06 1.97 1.80 1.71 1.64 1.54 1.29 1.04 0.79 0.61 0.49 0.53 0.56 0.72 0.61 0.50 0.47 0.38 0.26 0.19 0.15 0.13 0.13 0.16 0.20 0.23 0.20 0.21
0.99 0.98 0.94 0.95 1.06 1.19 1.39 1.60 1.66 1.62 1.58 1.59 1.70 1.84 1.96 2.06 2.11 1.91 1.81 1.72 1.55 1.38 1.18 0.91 0.72 0.60 0.66 0.65 0.74 0.60 0.55 0.60 0.47 0.36 0.27 0.22 0.18 0.16 0.16 0.18 0.18 0.17 0.15
0.74 0.77 0.92 0.96 1.01 1.07 1.23 1.48 1.64 1.66 1.58 1.56 1.54 1.59 1.71 1.81 2.03 2.01 1.90 1.78 1.63 1.44 1.24 1.07 0.86 0.66 0.71 0.75 0.78 0.70 0.63 0.58 0.46 0.41 0.33 0.26 0.23 0.22 0.20 0.22 0.22 0.20 0.18
0.52 0.62 0.74 0.78 0.82 0.84 0.98 1.25 1.44 1.48 1.43 1.36 1.34 1.40 1.58 1.74 1.95 2.05 2.02 1.90 1.78 1.64 1.47 1.34 1.15 0.92 0.81 0.80 0.87 0.91 0.84 0.76 0.67 0.63 0.52 0.38 0.32 0.30 0.28 0.27 0.27 0.25 0.22
0.55 0.64 0.72 0.77 0.80 0.83 0.82 0.90 1.02 1.15 1.17 1.13 1.13 1.13 1.17 1.32 1.58 1.77 1.85 1.88 1.91 1.86 1.76 1.58 1.35 1.18 1.03 0.90 0.90 0.92 0.89 0.91 0.84 0.85 0.79 0.65 0.52 0.48 0.43 0.37 0.32 0.29 0.27
0.51 0.56 0.60 0.68 0.77 0.80 0.77 0.76 0.78 0.83 0.84 0.89 0.94 0.96 0.99 1.03 1.18 1.34 1.47 1.67 1.89 1.88 1.86 1.77 1.54 1.28 1.12 1.00 1.01 1.03 1.03 1.00 0.96 0.86 0.84 0.75 0.66 0.56 0.49 0.43 0.36 0.32 0.29
0.42 0.47 0.52 0.55 0.61 0.68 0.72 0.73 0.63 0.59 0.64 0.70 0.74 0.75 0.76 0.84 0.93 1.00 1.07 1.36 1.67 1.80 1.77 1.73 1.62 1.42 1.17 1.06 0.96 0.92 1.02 1.17 1.16 1.06 1.01 0.86 0.75 0.63 0.54 0.48 0.42 0.38 0.33
0.39 0.44 0.44 0.46 0.56 0.57 0.67 0.65 0.50 0.48 0.51 0.61 0.69 0.67 0.60 0.59 0.63 0.69 0.77 0.91 1.13 1.34 1.56 1.68 1.64 1.45 1.25 1.10 1.04 1.02 1.04 1.10 1.17 1.07 1.06 1.09 0.99 0.90 0.82 0.72 0.69 0.64 0.52
0.35 0.38 0.39 0.40 0.45 0.57 0.58 0.42 0.39 0.42 0.50 0.56 0.63 0.68 0.61 0.52 0.56 0.57 0.66 0.73 0.72 0.80 1.04 1.30 1.43 1.42 1.45 1.26 1.17 1.10 1.03 1.08 1.09 1.02 1.05 1.09 1.09 1.06 1.01 0.97 0.96 0.88 0.76
0.42 0.42 0.44 0.44 0.44 0.49 0.46 0.33 0.34 0.38 0.45 0.51 0.60 0.68 0.73 0.65 0.64 0.72 0.70 0.72 0.67 0.64 0.79 0.79 0.93 1.22 1.35 1.38 1.30 1.31 1.42 1.34 1.18 1.05 0.93 0.94 0.93 0.92 0.92 0.94 0.95 0.85 0.75
0.42 0.44 0.48 0.48 0.43 0.40 0.39 0.30 0.29 0.38 0.46 0.52 0.55 0.61 0.67 0.64 0.75 0.82 0.80 0.89 0.86 0.76 0.88 0.91 0.92 0.94 1.00 1.09 1.18 1.21 1.27 1.30 1.27 1.14 0.92 0.79 0.78 0.74 0.72 0.71 0.70 0.71 0.68
0.24 0.32 0.34 0.38 0.41 0.38 0.46 0.33 0.32 0.38 0.49 0.60 0.63 0.62 0.75 0.73 0.76 0.74 0.71 0.91 0.93 0.82 0.73 0.76 0.75 0.69 0.64 0.71 0.86 0.97 1.11 1.15 1.09 0.99 0.79 0.66 0.63 0.62 0.63 0.53 0.42 0.42 0.43